When you browse on this site, cookies collect data to enhance your experience and personalize the content and advertising you see.
Visit our Privacy Policy to learn more. By continuing to use the site, you agree to this use of cookies and data.
  • In Austria
  • List of Countries
  • For 7 days
  • Water Temperature
  • Satellite Maps
  • Weather Map
  • News
  • Weather Widgets
  • user-avatar
    Login

    Hourly Weather Tibissa

    Today, 25 April, Thursday

    Time Temperature Precipitation Wind Pressure Humidity
    00:00 +15°C° 0 mm 2 mps 684 mmHg 62%
    01:00 +15°C° 0 mm 2 mps 684 mmHg 65%
    02:00 +14°C° 0 mm 1 mps 684 mmHg 67%
    03:00 +14°C° 0 mm 1 mps 684 mmHg 68%
    04:00 +13°C° 0 mm 1 mps 683 mmHg 69%
    05:00 +14°C° 0 mm 1 mps 684 mmHg 63%
    06:00 +15°C° 0 mm 1 mps 684 mmHg 57%
    07:00 +18°C° 0 mm 1 mps 685 mmHg 46%
    08:00 +19°C° 0 mm 2 mps 685 mmHg 39%
    09:00 +21°C° 0 mm 2 mps 686 mmHg 31%
    10:00 +25°C° 0 mm 2 mps 687 mmHg 24%
    11:00 +26°C° 0 mm 3 mps 687 mmHg 21%
    12:00 +28°C° 0 mm 4 mps 687 mmHg 18%
    13:00 +29°C° 0 mm 5 mps 687 mmHg 15%
    14:00 +30°C° 0 mm 5 mps 687 mmHg 15%
    15:00 +30°C° 0 mm 5 mps 687 mmHg 14%
    16:00 +30°C° 0 mm 6 mps 687 mmHg 14%
    17:00 +28°C° 0 mm 5 mps 686 mmHg 17%
    18:00 +27°C° 0 mm 5 mps 686 mmHg 20%
    19:00 +26°C° 0 mm 4 mps 686 mmHg 23%
    20:00 +24°C° 0 mm 3 mps 686 mmHg 28%
    21:00 +22°C° 0 mm 3 mps 686 mmHg 33%
    22:00 +20°C° 0 mm 2 mps 686 mmHg 39%
    23:00 +21°C° 0 mm 1 mps 686 mmHg 43%

    Tomorrow, 26 April, Friday

    Time Temperature Precipitation Wind Pressure Humidity
    00:00 +20°C° 0 mm 1 mps 686 mmHg 48%
    01:00 +19°C° 0 mm 1 mps 686 mmHg 52%
    02:00 +18°C° 0 mm 1 mps 686 mmHg 55%
    03:00 +16°C° 0 mm 0 mps 686 mmHg 57%
    04:00 +15°C° 0 mm 0 mps 686 mmHg 60%
    05:00 +18°C° 0 mm 1 mps 686 mmHg 61%
    06:00 +18°C° 0 mm 1 mps 687 mmHg 62%
    07:00 +17°C° 0 mm 2 mps 687 mmHg 64%
    08:00 +18°C° 0 mm 3 mps 687 mmHg 61%
    09:00 +19°C° 0 mm 3 mps 688 mmHg 59%
    10:00 +20°C° 0 mm 4 mps 688 mmHg 56%
    11:00 +21°C° 0 mm 4 mps 688 mmHg 52%
    12:00 +22°C° 0 mm 4 mps 688 mmHg 47%
    13:00 +23°C° 0 mm 4 mps 688 mmHg 42%
    14:00 +23°C° 0 mm 5 mps 688 mmHg 42%
    15:00 +25°C° 0 mm 5 mps 688 mmHg 42%
    16:00 +24°C° 0 mm 6 mps 688 mmHg 42%
    17:00 +21°C° 0.3 mm 7 mps 688 mmHg 51%
    18:00 +18°C° 0.3 mm 7 mps 688 mmHg 61%
    19:00 +16°C° 0.3 mm 8 mps 687 mmHg 70%
    20:00 +15°C° 0.1 mm 7 mps 688 mmHg 73%
    21:00 +14°C° 0.1 mm 6 mps 688 mmHg 77%
    22:00 +13°C° 0.1 mm 5 mps 689 mmHg 80%
    23:00 +13°C° 0 mm 4 mps 689 mmHg 80%

    Day after tomorrow, 27 April, Saturday

    Time Temperature Precipitation Wind Pressure Humidity
    00:00 +12°C° 0 mm 4 mps 688 mmHg 80%
    01:00 +12°C° 0 mm 4 mps 688 mmHg 81%
    02:00 +11°C° 0 mm 4 mps 688 mmHg 80%
    03:00 +11°C° 0 mm 3 mps 688 mmHg 79%
    04:00 +11°C° 0 mm 3 mps 688 mmHg 78%
    05:00 +11°C° 0 mm 3 mps 688 mmHg 74%
    06:00 +11°C° 0 mm 3 mps 688 mmHg 70%
    07:00 +11°C° 0 mm 3 mps 688 mmHg 65%
    08:00 +12°C° 0 mm 4 mps 689 mmHg 58%
    09:00 +13°C° 0 mm 4 mps 689 mmHg 50%
    10:00 +15°C° 0 mm 4 mps 690 mmHg 43%
    11:00 +17°C° 0 mm 4 mps 690 mmHg 39%
    12:00 +18°C° 0 mm 4 mps 690 mmHg 35%
    13:00 +19°C° 0 mm 4 mps 690 mmHg 31%
    14:00 +20°C° 0 mm 4 mps 689 mmHg 29%
    15:00 +20°C° 0 mm 4 mps 689 mmHg 28%
    16:00 +20°C° 0 mm 4 mps 689 mmHg 26%
    17:00 +19°C° 0 mm 4 mps 689 mmHg 32%
    18:00 +17°C° 0 mm 5 mps 689 mmHg 37%
    19:00 +16°C° 0 mm 5 mps 689 mmHg 43%
    20:00 +15°C° 0 mm 5 mps 689 mmHg 51%
    21:00 +13°C° 0 mm 4 mps 689 mmHg 59%
    22:00 +12°C° 0 mm 3 mps 689 mmHg 67%
    23:00 +12°C° 0 mm 3 mps 689 mmHg 69%

    28 April, Sunday

    Time Temperature Precipitation Wind Pressure Humidity
    00:00 +12°C° 0 mm 2 mps 689 mmHg 71%
    01:00 +12°C° 0 mm 1 mps 689 mmHg 73%
    02:00 +11°C° 0 mm 1 mps 688 mmHg 74%
    03:00 +11°C° 0 mm 1 mps 688 mmHg 76%
    04:00 +10°C° 0 mm 1 mps 688 mmHg 77%
    05:00 +11°C° 0 mm 1 mps 688 mmHg 73%
    06:00 +11°C° 0 mm 1 mps 688 mmHg 68%
    07:00 +10°C° 0 mm 2 mps 688 mmHg 63%
    08:00 +13°C° 0 mm 2 mps 688 mmHg 53%
    09:00 +15°C° 0 mm 2 mps 689 mmHg 43%
    10:00 +16°C° 0 mm 2 mps 689 mmHg 33%
    11:00 +18°C° 0 mm 2 mps 689 mmHg 31%
    12:00 +19°C° 0 mm 2 mps 689 mmHg 28%
    13:00 +20°C° 0 mm 2 mps 689 mmHg 26%
    14:00 +21°C° 0 mm 2 mps 688 mmHg 25%
    15:00 +23°C° 0 mm 2 mps 688 mmHg 24%
    16:00 +23°C° 0 mm 2 mps 687 mmHg 24%
    17:00 +23°C° 0 mm 2 mps 687 mmHg 26%
    18:00 +21°C° 0 mm 3 mps 687 mmHg 28%
    19:00 +20°C° 0 mm 3 mps 687 mmHg 30%
    20:00 +19°C° 0 mm 2 mps 687 mmHg 33%
    21:00 +18°C° 0 mm 2 mps 687 mmHg 37%
    22:00 +18°C° 0 mm 1 mps 687 mmHg 41%
    23:00 +16°C° 0 mm 1 mps 687 mmHg 45%

    29 April, Monday

    Time Temperature Precipitation Wind Pressure Humidity
    00:00 +16°C° 0 mm 1 mps 687 mmHg 50%
    01:00 +15°C° 0 mm 1 mps 686 mmHg 55%
    02:00 +14°C° 0 mm 1 mps 686 mmHg 56%
    03:00 +14°C° 0 mm 1 mps 686 mmHg 57%
    04:00 +13°C° 0 mm 2 mps 685 mmHg 58%
    05:00 +14°C° 0 mm 2 mps 685 mmHg 55%
    06:00 +14°C° 0 mm 2 mps 686 mmHg 52%
    07:00 +15°C° 0 mm 2 mps 686 mmHg 49%
    08:00 +17°C° 0 mm 2 mps 686 mmHg 44%
    09:00 +18°C° 0 mm 2 mps 687 mmHg 38%
    10:00 +20°C° 0 mm 3 mps 687 mmHg 33%
    11:00 +21°C° 0 mm 3 mps 687 mmHg 31%
    12:00 +22°C° 0 mm 3 mps 686 mmHg 29%
    13:00 +25°C° 0 mm 3 mps 686 mmHg 27%
    14:00 +25°C° 0 mm 3 mps 686 mmHg 27%
    15:00 +25°C° 0 mm 3 mps 685 mmHg 27%
    16:00 +25°C° 0 mm 3 mps 685 mmHg 27%
    17:00 +24°C° 0 mm 3 mps 685 mmHg 31%
    18:00 +22°C° 0 mm 3 mps 685 mmHg 36%
    19:00 +21°C° 0 mm 3 mps 685 mmHg 40%
    20:00 +20°C° 0 mm 3 mps 685 mmHg 48%
    21:00 +18°C° 0 mm 3 mps 685 mmHg 56%
    22:00 +17°C° 0 mm 3 mps 685 mmHg 64%
    23:00 +16°C° 0 mm 2 mps 685 mmHg 66%

    30 April, Tuesday

    Time Temperature Precipitation Wind Pressure Humidity
    00:00 +16°C° 0 mm 1 mps 685 mmHg 68%
    01:00 +15°C° 0 mm 1 mps 684 mmHg 71%
    02:00 +15°C° 0 mm 1 mps 684 mmHg 66%
    03:00 +15°C° 0 mm 1 mps 684 mmHg 61%
    04:00 +15°C° 0 mm 2 mps 683 mmHg 56%
    05:00 +15°C° 0 mm 2 mps 684 mmHg 53%
    06:00 +16°C° 0 mm 2 mps 684 mmHg 49%
    07:00 +17°C° 0 mm 2 mps 684 mmHg 45%
    08:00 +18°C° 0 mm 3 mps 684 mmHg 40%
    09:00 +20°C° 0 mm 4 mps 684 mmHg 35%
    10:00 +21°C° 0 mm 5 mps 684 mmHg 30%
    11:00 +22°C° 0 mm 6 mps 684 mmHg 29%
    12:00 +23°C° 0 mm 7 mps 684 mmHg 28%
    13:00 +26°C° 0 mm 7 mps 684 mmHg 26%
    14:00 +24°C° 0 mm 8 mps 684 mmHg 27%
    15:00 +24°C° 0 mm 8 mps 683 mmHg 27%
    16:00 +23°C° 0 mm 9 mps 683 mmHg 28%
    17:00 +23°C° 0 mm 7 mps 682 mmHg 30%
    18:00 +22°C° 0 mm 6 mps 682 mmHg 32%
    19:00 +21°C° 0 mm 5 mps 682 mmHg 35%
    20:00 +20°C° 0 mm 4 mps 682 mmHg 39%
    21:00 +19°C° 0 mm 3 mps 682 mmHg 43%
    22:00 +18°C° 0 mm 2 mps 682 mmHg 48%
    23:00 +17°C° 0 mm 2 mps 682 mmHg 50%
    Show more